This demonstration page uses our WeatherBlox Daily Observations layout. Learn more.

Hourly Observations for May 12, 2017

Temp ( °F °C ) Dew Point ( °F °C ) Humidity (%) Winds ( mph kmh ) Pressure ( in mb ) Visibility ( mi km ) Precip ( " mm )
12:15 am 00:15 Clear 46 7.9 40 4.5 79 79 NE 3 6 30.18 1022 10 16.09344 0 0
12:35 am 00:35 Clear 46 8 40 4.5 79 79 NE 3 6 30.15 1021 10 16.09344 0 0
12:55 am 00:55 Clear 45 7.4 39 4 79 79 NNE 3 6 30.18 1022 10 16.09344 0 0
1:15 am 01:15 Clear 44 6.9 39 4 82 82 N 3 6 30.18 1022 10 16.09344 0 0
1:35 am 01:35 Clear 44 6.9 39 4.1 83 83 Calm 30.18 1022 10 16.09344 0 0
1:55 am 01:55 Clear 45 7.1 39 4 81 81 Calm 30.18 1022 10 16.09344 0 0
2:15 am 02:15 Clear 43 6.2 38 3.4 82 82 Calm 30.18 1022 10 16.09344 0 0
2:35 am 02:35 Clear 43 6.2 38 3.3 82 82 Calm 30.18 1022 10 16.09344 0 0
2:55 am 02:55 Clear 43 6.2 39 3.9 85 85 Calm 30.18 1022 10 16.09344 0 0
3:15 am 03:15 Clear 44 6.5 39 4 84 84 Calm 30.18 1022 10 16.09344 0 0
3:35 am 03:35 Clear 42 5.4 38 3.2 86 86 Calm 30.18 1022 10 16.09344 0 0
3:55 am 03:55 Clear 41 5.2 38 3.3 88 88 Calm 30.18 1022 10 16.09344 0 0
4:15 am 04:15 Clear 43 5.9 38 3.6 85 85 Calm 30.18 1022 10 16.09344 0 0
4:35 am 04:35 Clear 40 4.5 37 2.7 88 88 WNW 5 7 30.21 1023 10 16.09344 0 0
4:55 am 04:55 Clear 39 3.9 37 2.5 91 91 WNW 7 11 30.21 1023 10 16.09344 0 0
5:15 am 05:15 Clear 40 4.5 37 2.7 88 88 NW 8 13 30.21 1023 10 16.09344 0 0
5:35 am 05:35 Clear 40 4.2 37 2.5 89 89 NW 8 13 30.21 1023 10 16.09344 0 0
5:55 am 05:55 Partly Cloudy 40 4.6 37 3 89 89 WNW 7 11 30.21 1023 10 16.09344 0 0
6:15 am 06:15 Partly Cloudy 40 4.6 37 3 89 89 WNW 6 9 30.21 1023 10 16.09344 0 0
6:35 am 06:35 Sunny 40 4.3 37 2.8 90 90 WNW 6 9 30.21 1023 10 16.09344 0 0
6:55 am 06:55 Sunny 40 4.5 37 3 90 90 WNW 6 9 30.21 1023 10 16.09344 0 0
7:15 am 07:15 Sunny 42 5.3 39 3.8 90 90 WNW 7 11 30.18 1022 10 16.09344 0 0
7:35 am 07:35 Sunny 43 6.3 40 4.7 90 90 WNW 5 7 30.18 1022 10 16.09344 0 0
7:55 am 07:55 Sunny 45 7.4 42 5.4 87 87 W 6 9 30.18 1022 10 16.09344 0 0
8:15 am 08:15 Sunny 48 8.7 43 6 83 83 WNW 6 9 30.15 1021 10 16.09344 0 0
8:35 am 08:35 Sunny 51 10.4 45 7.1 80 80 WNW 6 9 30.15 1021 10 16.09344 0 0
8:55 am 08:55 Sunny 53 11.7 44 6.9 73 73 W 8 13 30.12 1020 10 16.09344 0 0
9:15 am 09:15 Sunny 55 12.9 45 7 68 68 WNW 7 11 30.12 1020 10 16.09344 0 0
9:35 am 09:35 Sunny 57 14.1 46 7.7 66 66 WNW 7 11 30.12 1020 10 16.09344 0 0
9:55 am 09:55 Sunny 59 15.2 44 6.9 58 58 WNW 7 11 30.09 1019 10 16.09344 0 0
10:15 am 10:15 Sunny 61 16.3 46 7.5 56 56 WNW 6 9 30.06 1018 10 16.09344 0 0
10:35 am 10:35 Sunny 63 17 41 5.1 46 46 WNW 6 9 30.06 1018 10 16.09344 0 0
10:55 am 10:55 Sunny 64 17.6 38 3.3 39 39 W 3 6 30.03 1017 10 16.09344 0 0
11:15 am 11:15 Sunny 65 18.5 38 3.5 37 37 Calm 30.03 1017 10 16.09344 0 0
11:35 am 11:35 Sunny 67 19.3 42 5.6 41 41 S 3 6 30.03 1017 10 16.09344 0 0
11:55 am 11:55 Sunny 67 19.5 40 4.6 38 38 S 8 13 30.03 1017 10 16.09344 0 0
12:15 pm 12:15 Sunny 68 20 38 3.5 34 34 ESE 5 7 30.03 1017 10 16.09344 0 0
12:35 pm 12:35 Sunny 68 20.2 38 3.6 34 34 SE 6 9 30.03 1017 10 16.09344 0 0
12:55 pm 12:55 Sunny 69 20.7 37 2.9 31 31 SE 8 13 30.03 1017 10 16.09344 0 0
1:15 pm 13:15 Sunny 70 20.9 37 2.9 31 31 SSE 3 6 30 1016 10 16.09344 0 0
1:35 pm 13:35 Sunny 70 21.1 37 2.7 30 30 SSE 8 13 29.97 1015 10 16.09344 0 0
1:55 pm 13:55 Sunny 71 21.6 38 3.2 30 30 SSE 7 11 29.97 1015 10 16.09344 0 0
2:15 pm 14:15 Sunny 71 21.5 34 1 26 26 SE 3 6 29.97 1015 10 16.09344 0 0
2:35 pm 14:35 Sunny 71 21.7 35 1.8 27 27 S 3 6 29.97 1015 10 16.09344 0 0
2:55 pm 14:55 Sunny 71 21.9 37 2.9 29 29 ESE 9 15 29.94 1014 10 16.09344 0 0
3:15 pm 15:15 Sunny 72 22.1 38 3.3 29 29 SSE 12 19 29.94 1014 10 16.09344 0 0
3:35 pm 15:35 Sunny 72 22.3 38 3.4 29 29 S 9 15 29.94 1014 10 16.09344 0 0
3:55 pm 15:55 Sunny 72 22.3 38 3.5 29 29 SE 9 15 29.94 1014 10 16.09344 0 0
4:15 pm 16:15 Sunny 73 22.5 38 3.3 29 29 SSE 10 17 29.94 1014 10 16.09344 0 0
4:35 pm 16:35 Sunny 73 22.5 39 3.8 30 30 SE 9 15 29.94 1014 10 16.09344 0 0
4:55 pm 16:55 Sunny 73 22.6 38 3.1 28 28 SE 12 19 29.94 1014 10 16.09344 0 0
5:15 pm 17:15 Sunny 73 22.5 38 3.6 29 29 SSE 7 11 29.94 1014 10 16.09344 0 0
5:35 pm 17:35 Sunny 73 22.5 38 3.2 28 28 S 6 9 29.94 1014 10 16.09344 0 0
5:55 pm 17:55 Sunny 72 22.4 36 2.4 27 27 SE 7 11 29.91 1013 10 16.09344 0 0
6:15 pm 18:15 Sunny 72 22.3 40 4.5 31 31 S 13 20 29.91 1013 10 16.09344 0 0
6:35 pm 18:35 Sunny 72 22 38 3.2 29 29 SSE 7 11 29.91 1013 10 16.09344 0 0
6:55 pm 18:55 Sunny 71 21.8 38 3.5 30 30 S 9 15 29.91 1013 10 16.09344 0 0
7:15 pm 19:15 Sunny 70 21.3 40 4.6 34 34 S 10 17 29.91 1013 10 16.09344 0 0
7:35 pm 19:35 Sunny 70 21 38 3.4 32 32 S 10 17 29.91 1013 10 16.09344 0 0
7:55 pm 19:55 Sunny 68 19.9 41 5 38 38 S 9 15 29.91 1013 10 16.09344 0 0
8:15 pm 20:15 Partly Cloudy 66 18.8 41 4.8 40 40 S 10 17 29.94 1014 10 16.09344 0 0
8:35 pm 20:35 Sunny 65 18.4 40 4.2 39 39 S 9 15 29.94 1014 10 16.09344 0 0
8:55 pm 20:55 Clear 61 16 41 5.2 49 49 S 8 13 29.97 1015 10 16.09344 0 0
9:15 pm 21:15 Clear 58 14.6 43 6 57 57 S 8 13 29.97 1015 10 16.09344 0 0
9:35 pm 21:35 Clear 58 14.7 42 5.3 54 54 S 9 15 29.97 1015 10 16.09344 0 0
9:55 pm 21:55 Clear 56 13.6 43 5.9 60 60 S 8 13 29.97 1015 10 16.09344 0 0
10:15 pm 22:15 Clear 55 13 42 5.8 62 62 S 8 13 30 1016 10 16.09344 0 0
10:35 pm 22:35 Clear 55 12.5 43 5.9 64 64 S 7 11 30 1016 10 16.09344 0 0
10:55 pm 22:55 Clear 54 12.1 42 5.8 66 66 S 8 13 30 1016 10 16.09344 0 0
11:15 pm 23:15 Clear 53 11.8 42 5.7 66 66 SSE 7 11 30 1016 10 16.09344 0 0
11:35 pm 23:35 Clear 52 11.2 42 5.7 69 69 S 7 11 30 1016 10 16.09344 0 0
11:55 pm 23:55 Clear 53 11.5 42 5.5 67 67 S 8 13 30 1016 10 16.09344 0 0

Powered by AerisWeather